Probability
0 0 0 0 0 0 0 0 0 0 0 0 0 0 0 0 0 0 0 0 0 0 0 0 0 0 0 0 0 0 0 0 0 0 0 0 0 0
0 0 0 0 0 0 0 0 0 0 0 0 0 0 0 0 0 0 0 0 0 0 0 0 0 0 0 0 0 0 0 0 0 0 0 0 0 0
0 0 0 0 0 0 0 0 0 0 0 0 0 0 0 0 0 0 0 0 0 0 0 0 0 0 0 0 0 0 0 0 0 0 0 0 0 0
0 0 0 0 0 0 0 0 0 0 0 0 0 0 0 0 0 0 0 0 0 0 0 0 0 0 0 0 0 0 0 0 0 0 0 0 0 0
0 0 0 0 0 0 0 0 0 0 0 0 0 0 0 0 0 0 0 0 0 0 0 0 0 0 0 0 0 0 0 0 0 0 0 0 0 0
0 0 0 0 0 0 0 0 0 0 0 0 0 0 0 0 0 0 0 0 0 0 0 0 0 0 0 0 0 0 0 0 0 0 0 0 0 0
0 0 0 0 0 0 0 0 0 0 0 0 0 0 0 0 0 0 0 0 0 0 0 0 0 0 0 0 0 0 0 0 0 0 0 0 0 0
0 0 0 0 0 0 0 0 0 0 0 0 0 0 0 0 0 0 0 0 0 0 0 0 0 0 0 0 0 0 0 0 0 0 0 0 0 0
0 0 0 0 0 0 0 0 0 0 0 0 0 0 0 0 0 0 0 0 0 0 0 0 0 0 0 0 0 0 0 0 0 0 0 0 0 0
0 0 0 0 0 0 0 0 0 0 0 0 0 0 0 0 0 0 0 0 0 0 0 0 0 0 0 0 0 0 0 0 0 0 0 0 0 0
0 0 0 0 0 0 0 0 0 0 0 0 0 0 0 0 0 0 0 0 0 0 0 0 0 0 0 0 0 0 0 0 0 0 0 0 0 0
0 0 0 0 0 0 0 0 0 0 0 0 0 0 0 0 0 0 0 0 0 0 0 0 0 0 0 0 0 0 0 0 0 0 0 0 0 0
0 0 0 0 0 0 0 0 0 0 0 0 0 0 0 0 0 0 0 0 0 0 0 0 0 0 0 0 0 0 0 0 0 0 0 0 0 0
0 0 0 0 0 0 0 0 0 0 0 0 0 0 0 0 0 0 0 0 0 0 0 0 0 0 0 0 0 0 0 0 0 0 0 0 0 0
0 0 0 0 0 0 0 0 0 0 0 0 0 0 0 0 0 0 0 0 0 0 0 0 0 0 0 0 0 0 0 0 0 0 0 0 0 0
0 0 0 0 0 0 0 0 0 0 0 0 0 0 0 0 0 0 0 0 0 0 0 0 0 0 0 0 0 0 0 0 0 0 0 0 0 0
0 0 0 0 0 0 0 0 0 0 0 0 0 0 0 0 0 0 0 0 0 0 0 0 0 0 0 0 0 0 0 0 0 0 0 0 0 0
0 0 0 0 0 0 0 0 0 0 0 0 0 0 0 0 0 0 0 0 0 0 0 0 0 0 0 0 0 0 0 0 0 0 0 0 0 0
0 0 0 0 0 0 0 0 0 0 0 0 0 0 0 0 0 0 0 0 0 0 0 0 0 0 0 0 0 0 0 0 0 0 0 0 0 0
0 0 0 0 0 0 0 0 0 0 0 0 0 0 0 0 0 0 0 0 0 0 0 0 0 0 0 0 0 0 0 0 0 0 0 0 0 0
0 0 0 0 0 0 0 0 0 0 0 0 0 0 0 0 0 0 0 0 0 0 0 0 0 0 0 0 0 0 0 0 0 0 0 0 0 0
0 0 0 0 0 0 0 0 0 0 0 0 0 0 0 0 0 0 0 0 0 0 0 0 0 0 0 0 0 0 0 0 0 0 0 0 0 0
0 0 0 0 0 0 0 0 0 0 0 0 0 0 0 0 0 0 0 0 0 0 0 0 0 0 0 0 0 0 0 0 0 0 0 0 0 0
Wind_Speed
3 3 2 2 2 2 2 3 3 4 4 3 2 2 2 1 3 2 2 5 6 6 6 7 7 7 7 8 8 8 8 8 8 8 8 9 9 9
3 3 3 2 2 2 3 3 3 4 5 2 2 2 2 2 4 2 2 5 6 6 7 7 7 7 7 8 8 8 8 8 8 8 9 9 9 9
3 4 4 3 2 2 2 2 3 3 5 3 2 2 2 2 3 2 2 3 3 6 7 8 8 8 7 8 8 8 8 7 8 8 9 9 9 9
4 4 4 3 4 3 3 3 4 4 4 5 3 2 3 3 3 3 3 2 3 6 7 8 8 8 8 8 8 7 7 7 8 8 9 9 9 10
5 5 5 4 5 4 4 4 3 4 4 4 4 2 2 2 2 2 3 2 3 4 6 7 8 8 8 8 8 7 7 7 8 7 8 8 9 10
5 5 5 5 5 5 5 5 4 4 4 4 3 3 2 2 2 2 3 2 3 3 4 5 6 7 7 8 8 7 7 7 8 8 7 8 8 9
5 5 5 6 7 5 4 4 4 4 4 4 4 3 3 2 3 2 3 3 3 2 2 3 3 3 4 6 6 7 7 7 8 8 8 8 8 9
5 4 5 6 7 8 8 7 6 5 5 5 4 5 5 4 3 3 3 2 4 2 1 3 2 3 3 3 6 7 7 7 8 8 8 8 8 9
5 4 4 5 6 5 7 8 8 9 8 6 6 6 5 4 4 4 4 4 4 2 1 3 2 3 3 4 8 8 7 8 8 8 8 8 8 9
5 5 5 5 5 5 4 5 5 6 7 6 6 6 5 4 5 4 4 3 2 2 1 3 2 3 3 3 7 7 7 8 8 8 8 8 8 8
5 5 5 5 7 6 4 4 4 4 5 6 6 5 6 5 3 1 2 2 3 2 1 2 2 3 3 3 4 6 7 8 8 8 7 8 8 7
4 4 7 7 8 6 4 4 5 4 2 2 3 4 3 4 4 4 4 3 2 2 2 1 1 1 3 2 2 3 4 6 7 7 7 8 7 4
3 3 4 8 8 7 6 4 5 3 2 2 2 2 1 2 2 2 3 4 3 3 2 2 2 1 2 3 3 3 3 3 3 4 6 7 6 4
4 3 4 8 8 7 5 4 4 2 1 1 2 2 2 2 2 1 1 1 2 3 4 3 2 3 2 3 4 3 3 3 2 3 3 5 5 6
3 5 6 7 5 4 4 4 2 1 2 2 2 2 2 2 1 1 0 0 1 1 2 3 3 3 3 3 3 3 3 3 2 2 2 2 2 2
2 3 4 4 2 3 2 1 1 2 2 3 2 1 1 1 1 1 1 0 0 1 1 1 2 3 3 3 3 4 3 3 2 3 3 3 2 2
1 0 1 1 1 1 1 1 1 1 1 1 1 1 1 1 1 1 1 1 1 1 1 1 1 1 3 3 3 4 3 3 3 2 2 3 3 2
1 1 2 2 2 2 2 2 2 2 1 1 2 2 2 2 1 1 1 1 2 2 2 1 0 1 2 2 4 3 3 3 2 2 2 2 3 2
1 1 2 2 2 2 2 2 2 2 1 1 2 2 2 2 2 2 1 1 2 2 2 1 1 1 1 3 3 2 2 2 2 2 2 2 3 3
1 2 2 2 2 2 2 2 2 1 1 2 2 2 2 2 2 2 2 2 2 1 1 1 2 2 3 3 2 3 3 2 2 2 2 2 2 3
2 2 2 2 2 2 2 2 2 2 2 2 2 2 2 2 2 2 2 3 2 1 2 2 2 2 1 0 1 2 2 3 3 2 2 2 2 2
2 2 2 2 2 2 2 2 2 2 2 2 2 2 2 2 3 3 2 2 2 1 1 1 1 1 0 0 1 2 3 3 4 4 3 2 1 1
2 2 2 2 2 2 2 2 2 2 2 2 2 1 1 1 1 2 2 1 1 1 0 1 1 1 1 0 0 1 2 3 3 3 3 4 4 3
Wind_Direction
236 243 247 240 232 236 228 223 227 259 266 252 251 256 257 254 269 259 250 264 270 272 271 271 268 267 268 270 273 276 277 278 277 276 277 280 282 286
224 227 243 246 238 238 236 237 233 242 261 254 245 259 261 275 274 265 256 279 276 272 271 269 265 264 265 267 269 272 273 274 275 276 275 277 280 282
237 232 241 246 249 247 241 236 238 241 256 272 253 246 235 246 272 265 257 257 263 271 274 272 268 264 264 266 267 269 270 271 271 271 272 275 277 279
234 235 244 241 244 242 238 239 239 238 243 266 269 250 244 236 246 257 273 273 266 272 275 275 273 267 266 268 266 268 269 270 270 269 270 271 273 277
233 233 240 233 239 238 239 241 244 248 242 247 261 255 257 244 248 269 268 267 272 271 277 276 272 271 269 270 267 265 264 266 268 269 270 273 275 275
234 236 239 233 234 232 235 236 239 245 245 245 250 251 250 250 231 248 272 264 273 276 275 280 277 276 275 277 270 260 259 262 266 268 269 273 276 276
239 241 245 251 252 245 246 237 233 238 242 244 248 248 239 232 236 236 255 277 280 254 267 275 273 269 275 274 271 262 261 263 265 266 268 270 273 274
243 246 251 250 257 261 264 260 249 240 241 240 246 245 241 236 239 233 244 265 275 242 267 282 265 265 268 265 266 269 268 264 262 262 264 269 270 271
243 245 253 255 256 252 256 261 256 255 247 241 241 241 239 232 226 233 234 245 259 253 247 272 267 269 274 271 271 272 274 272 268 265 266 269 271 272
239 238 245 249 249 252 251 256 254 253 253 245 238 238 238 228 219 226 230 249 280 262 203 256 267 273 286 277 269 270 271 275 273 270 271 271 274 273
243 241 246 246 257 262 252 255 266 274 277 272 269 265 260 251 234 194 200 222 266 266 219 229 259 294 287 274 272 278 278 279 276 273 275 279 277 276
251 248 256 260 260 257 244 241 253 262 272 292 280 270 249 231 227 218 211 217 242 248 213 209 233 303 295 276 275 279 279 281 282 279 281 282 280 276
256 252 255 268 268 267 264 248 255 263 244 248 260 264 256 232 230 225 219 214 224 240 210 195 223 243 250 286 292 279 279 285 282 277 281 285 287 284
251 251 260 271 274 275 272 270 271 271 234 229 239 245 252 256 255 243 241 245 244 235 215 202 213 220 229 265 279 293 296 285 279 283 285 285 289 284
254 266 275 276 279 276 281 282 277 245 230 231 240 250 249 246 246 261 333 41 310 273 223 216 210 218 225 240 261 273 293 293 274 282 290 288 286 282
275 268 275 278 288 292 280 286 281 247 236 232 241 250 247 226 229 225 224 202 336 325 308 238 223 211 232 247 250 265 267 272 290 295 300 300 293 272
259 255 250 251 267 266 283 277 267 264 261 235 215 227 230 226 241 239 223 221 223 244 282 334 336 264 242 232 249 254 263 273 270 284 300 303 296 279
267 218 234 236 243 248 252 259 261 254 242 226 217 214 218 223 239 249 232 225 235 241 245 248 333 353 340 293 236 243 261 273 283 285 287 290 297 297
250 239 242 242 244 247 247 249 256 251 242 233 229 217 216 215 216 228 233 242 244 249 249 234 232 233 285 295 292 241 252 284 295 300 287 278 281 291
259 253 253 251 249 246 243 245 246 237 227 234 226 217 211 212 214 220 223 228 241 249 263 261 246 240 240 251 273 290 282 273 281 293 306 311 295 294
276 266 259 254 256 250 242 236 234 236 231 224 223 221 214 211 217 220 226 226 234 235 248 267 272 292 287 100 311 308 315 316 302 284 296 310 310 314
277 274 269 258 249 246 245 239 240 238 226 221 222 224 218 214 213 213 219 226 236 242 262 289 315 346 6 206 255 295 322 339 344 343 324 279 233 234
273 267 260 256 249 244 237 227 228 233 229 223 223 220 214 223 221 202 202 208 212 219 246 310 344 13 4 15 223 306 321 334 345 355 346 344 342 321